Latest Weather Observations for Ulladulla

IDN60801

Issued at 12:05 pm EST Tuesday 29 July 2014 (issued every 30 minutes, with the page automatically refreshed every 10 minutes)

About weather observations | Map of weather stations | Latest weather observations for NSW | Other Formats
Station Details ID: 069138 Name: ULLADULLA AWS Lat: -35.36 Lon: 150.48 Height: 35.7 m
Data from the previous 72 hours. | See also: Recent months at Ulladulla
Date/Time
EST
Temp
°C
App
Temp
°C
Dew
Point
Rel
Hum
%
Delta-T
°C
Wind Press
QNH
hPa
Press
MSL
hPa
Rain
since 9 am
mm
Dir
 
Spd
km/h
Gust
km/h
Spd
kts
Gust
kts
29/12:00pm 21.2 16.9 3.0 30 8.6 NW 15 28 8 15 1012.4 1012.4 0.0
29/11:30am 18.9 16.4 6.4 44 6.2 ENE 9 15 5 8 1014.0 - 0.0
29/11:00am 18.3 15.3 5.8 44 6.1 N 11 20 6 11 1013.6 1013.6 0.0
29/10:30am 17.7 14.3 3.9 40 6.5 N 11 19 6 10 1014.0 - 0.0
29/10:00am 16.6 12.8 5.9 49 5.2 N 15 26 8 14 1014.1 1014.1 0.0
29/09:30am 15.6 11.8 5.8 52 4.7 N 15 24 8 13 1014.6 - 0.0
29/09:00am 15.0 11.9 5.5 53 4.5 N 11 20 6 11 1015.0 1015.0 0.0
29/08:30am 14.5 11.4 5.6 55 4.2 NNW 11 19 6 10 1015.1 - 0.0
29/08:00am 14.3 10.3 5.1 54 4.3 N 15 22 8 12 1015.0 1015.0 0.0
29/07:30am 14.7 11.0 4.4 50 4.8 N 13 22 7 12 1015.2 - 0.0
29/07:00am 13.7 11.0 2.9 48 4.8 N 6 9 3 5 1015.4 1015.4 0.0
29/06:30am 14.3 11.5 3.2 47 5.0 N 7 15 4 8 1015.4 - 0.0
29/06:00am 14.9 10.8 2.1 42 5.7 NNW 13 19 7 10 1015.5 1015.5 0.0
29/05:30am 15.6 10.0 1.4 38 6.2 NW 20 35 11 19 1014.9 - 0.0
29/05:00am 15.4 9.8 1.5 39 6.1 NW 20 33 11 18 1014.6 1014.6 0.0
29/04:30am 15.6 9.4 2.1 40 6.0 NW 24 39 13 21 1014.3 - 0.0
29/04:00am 15.4 9.6 2.2 41 5.9 NW 22 35 12 19 1014.2 1014.2 0.0
29/03:30am 15.3 10.2 2.8 43 5.6 NW 19 35 10 19 1014.4 - 0.0
29/03:00am 15.4 10.6 2.6 42 5.7 NW 17 28 9 15 1014.6 1014.6 0.0
29/02:30am 15.0 11.8 2.9 44 5.4 WNW 9 17 5 9 1015.2 - 0.0
29/02:00am 14.8 11.5 2.7 44 5.4 NW 9 15 5 8 1015.1 1015.1 0.0
29/01:30am 14.3 11.7 3.2 47 5.0 WNW 6 11 3 6 1015.5 - 0.0
29/01:00am 14.5 11.8 3.6 48 5.0 WNW 7 17 4 9 1015.7 1015.7 0.0
29/12:30am 14.5 11.9 3.3 47 5.1 W 6 13 3 7 1016.2 - 0.0
29/12:00am 15.0 11.5 3.5 46 5.2 WNW 11 19 6 10 1016.3 1016.3 0.0
 
Date/Time
EST
Temp
°C
App
Temp
°C
Dew
Point
Rel
Hum
%
Delta-T
°C
Wind Press
QNH
hPa
Press
MSL
hPa
Rain
since 9 am
mm
Dir
 
Spd
km/h
Gust
km/h
Spd
kts
Gust
kts
28/11:30pm 14.8 12.2 4.2 49 4.9 WNW 7 19 4 10 1016.4 - 0.0
28/11:00pm 14.7 12.9 5.2 53 4.5 NNW 4 11 2 6 1016.6 1016.6 0.0
28/10:30pm 14.8 12.4 5.1 52 4.6 WNW 7 13 4 7 1016.7 - 0.0
28/10:00pm 14.7 12.5 5.2 53 4.5 W 6 20 3 11 1016.9 1016.9 0.0
28/09:30pm 15.2 12.1 5.7 53 4.5 WNW 11 24 6 13 1016.8 - 0.0
28/09:00pm 15.3 12.1 5.0 50 4.8 W 11 22 6 12 1017.1 1017.1 0.0
28/08:30pm 15.6 11.9 4.6 48 5.2 WNW 13 28 7 15 1017.1 - 0.0
28/08:00pm 15.7 11.6 4.4 47 5.3 WNW 15 33 8 18 1017.0 1017.0 0.0
28/07:30pm 15.5 12.1 3.9 46 5.4 WNW 11 22 6 12 1017.3 - 0.0
28/07:00pm 15.5 12.0 3.6 45 5.4 WNW 11 19 6 10 1017.2 1017.2 0.0
28/06:30pm 15.8 12.3 3.3 43 5.7 WNW 11 20 6 11 1017.2 - 0.0
28/06:00pm 15.9 11.7 3.7 44 5.6 WNW 15 28 8 15 1016.9 1016.9 0.0
28/05:30pm 15.8 12.4 4.2 46 5.4 WNW 11 20 6 11 1016.6 - 0.0
28/05:00pm 16.1 13.2 4.5 46 5.4 WNW 9 20 5 11 1016.7 1016.7 0.0
28/04:30pm 16.6 12.1 4.3 44 5.8 WNW 17 22 9 12 1016.5 - 0.0
28/04:00pm 16.8 11.8 4.5 44 5.8 WNW 20 35 11 19 1016.3 1016.3 0.0
28/03:30pm 17.1 14.3 5.1 45 5.7 WNW 9 19 5 10 1016.3 - 0.0
28/03:00pm 17.5 14.8 5.4 45 5.8 W 9 22 5 12 1016.5 1016.5 0.0
28/02:30pm 18.0 14.0 4.9 42 6.3 W 15 32 8 17 1016.7 - 0.0
28/02:00pm 18.3 14.7 4.8 41 6.5 W 13 24 7 13 1016.7 1016.7 0.0
28/01:30pm 17.9 14.0 5.2 43 6.1 W 15 28 8 15 1016.8 - 0.0
28/01:00pm 18.0 14.8 4.9 42 6.3 W 11 24 6 13 1017.3 1017.3 0.0
28/12:30pm 17.0 13.2 4.0 42 6.1 WNW 13 20 7 11 1017.9 - 0.0
28/12:00pm 17.4 13.6 4.0 41 6.3 WNW 13 22 7 12 1018.4 1018.4 0.0
28/11:30am 18.1 14.7 3.9 39 6.7 W 11 20 6 11 1018.9 - 0.0
28/11:00am 17.0 14.0 4.0 42 6.1 WNW 9 15 5 8 1019.1 1019.1 0.0
28/10:30am 16.4 13.3 3.8 43 5.8 WNW 9 17 5 9 1019.2 - 0.0
28/10:00am 15.9 12.4 3.4 43 5.7 W 11 19 6 10 1019.4 1019.4 0.0
28/09:30am 15.2 11.2 3.0 44 5.5 W 13 24 7 13 1019.7 - 0.0
28/09:00am 14.1 10.1 3.0 47 5.0 W 13 26 7 14 1019.7 1019.7 0.0
28/08:30am 13.2 8.7 2.4 48 4.7 W 15 28 8 15 1019.6 - 0.0
28/08:00am 12.3 8.1 1.9 49 4.5 WNW 13 24 7 13 1019.5 1019.5 0.0
28/07:30am 11.5 7.7 2.0 52 4.1 WNW 11 20 6 11 1019.4 - 0.0
28/07:00am 10.7 6.9 2.0 55 3.7 WNW 11 15 6 8 1019.1 1019.1 0.0
28/06:30am 10.8 6.8 2.6 57 3.5 WNW 13 20 7 11 1019.3 - 0.0
28/06:00am 10.9 6.9 3.0 58 3.4 WNW 13 20 7 11 1019.1 1019.1 0.0
28/05:30am 10.9 7.0 3.5 60 3.3 WNW 13 20 7 11 1019.0 - 0.0
28/05:00am 10.7 7.2 3.7 62 3.1 WNW 11 20 6 11 1018.9 1018.9 0.0
28/04:30am 10.9 7.1 3.9 62 3.1 WNW 13 22 7 12 1019.3 - 0.0
28/04:00am 10.8 7.8 4.0 63 3.0 WNW 9 17 5 9 1019.1 1019.1 0.0
28/03:30am 11.2 7.8 4.0 61 3.2 NW 11 17 6 9 1018.7 - 0.0
28/03:00am 11.2 8.3 4.4 63 3.1 NW 9 15 5 8 1019.0 1019.0 0.0
28/02:30am 11.5 8.6 4.5 62 3.2 NW 9 15 5 8 1018.9 - 0.0
28/02:00am 11.4 8.5 4.6 63 3.1 WNW 9 17 5 9 1019.7 1019.7 0.0
28/01:30am 11.2 8.3 4.7 64 2.9 WNW 9 15 5 8 1019.7 - 0.0
28/01:00am 11.5 8.6 4.9 64 3.0 WNW 9 13 5 7 1019.9 1019.9 0.0
28/12:30am 11.4 9.2 5.1 65 2.9 WNW 6 11 3 6 1020.3 - 0.0
28/12:00am 11.7 9.3 5.1 64 3.0 NW 7 15 4 8 1020.5 1020.5 0.0
 
Date/Time
EST
Temp
°C
App
Temp
°C
Dew
Point
Rel
Hum
%
Delta-T
°C
Wind Press
QNH
hPa
Press
MSL
hPa
Rain
since 9 am
mm
Dir
 
Spd
km/h
Gust
km/h
Spd
kts
Gust
kts
27/11:30pm 11.8 9.4 5.2 64 3.0 NW 7 13 4 7 1020.9 - 0.0
27/11:00pm 11.2 9.5 5.7 69 2.5 NW 4 13 2 7 1020.8 1020.8 0.0
27/10:30pm 11.0 9.9 5.1 67 2.7 CALM 0 4 0 2 1021.3 - 0.0
27/10:00pm 11.4 9.6 5.5 67 2.7 WNW 4 7 2 4 1021.3 1021.4 0.0
27/09:30pm 11.9 10.6 5.8 66 2.8 WNW 2 6 1 3 1020.7 - 0.0
27/09:00pm 12.4 10.1 5.6 63 3.2 NNW 7 9 4 5 1021.0 1021.1 0.0
27/08:30pm 12.8 10.5 5.7 62 3.3 WNW 7 11 4 6 1021.3 - 0.0
27/08:00pm 12.3 10.0 5.9 65 3.0 NW 7 11 4 6 1021.5 1021.6 0.0
27/07:30pm 11.9 10.1 5.5 65 3.0 WNW 4 6 2 3 1021.8 - 0.0
27/07:00pm 12.3 10.3 6.1 66 2.9 NNW 6 9 3 5 1022.0 1022.1 0.0
27/06:30pm 12.9 11.3 6.3 64 3.1 NNW 4 6 2 3 1022.0 - 0.0
27/06:00pm 14.1 12.7 7.2 63 3.4 NE 4 7 2 4 1021.6 1021.7 0.0
27/05:30pm 14.4 12.5 6.7 60 3.7 E 6 7 3 4 1021.4 - 0.0
27/05:00pm 14.4 13.0 5.7 56 4.1 ESE 2 4 1 2 1021.4 1021.5 0.0
27/04:30pm 16.0 14.7 6.2 52 4.8 ESE 2 6 1 3 1021.2 - 0.0
27/04:00pm 16.4 14.6 5.4 48 5.3 ESE 4 9 2 5 1020.9 1021.0 0.0
27/03:30pm 16.8 14.4 5.4 47 5.5 SE 7 11 4 6 1020.9 - 0.0
27/03:00pm 17.0 13.3 4.7 44 5.8 SSE 13 19 7 10 1020.9 1021.0 0.0
27/02:30pm 17.4 14.3 5.4 45 5.8 SSE 11 17 6 9 1020.9 - 0.0
27/02:00pm 17.7 14.8 6.3 47 5.6 S 11 15 6 8 1021.1 1021.2 0.0
27/01:30pm 17.7 15.4 5.9 46 5.8 S 7 11 4 6 1021.4 - 0.0
27/01:00pm 17.7 15.1 6.3 47 5.6 S 9 13 5 7 1021.7 1021.8 0.0
27/12:30pm 17.6 15.3 5.5 45 5.9 S 7 13 4 7 1022.0 - 0.0
27/12:00pm 17.6 14.8 5.2 44 5.9 S 9 15 5 8 1022.4 1022.5 0.0
27/11:30am 17.7 14.7 3.9 40 6.5 SW 9 15 5 8 1023.0 - 0.0
27/11:00am 17.6 14.7 4.6 42 6.2 WSW 9 15 5 8 1023.7 1023.8 0.0
27/10:30am 17.5 15.1 5.4 45 5.8 W 7 15 4 8 1023.8 - 0.0
27/10:00am 17.0 14.7 5.6 47 5.5 W 7 15 4 8 1024.1 1024.2 0.0
27/09:30am 16.0 13.2 5.3 49 5.1 WNW 9 15 5 8 1024.0 - 0.0
27/09:00am 15.0 12.2 5.2 52 4.6 WNW 9 17 5 9 1023.9 1024.0 0.0
27/08:30am 14.0 11.1 4.9 54 4.2 W 9 19 5 10 1023.7 - 0.0
27/08:00am 13.0 10.1 4.7 57 3.8 W 9 19 5 10 1023.5 1023.6 0.0
27/07:30am 12.0 8.7 4.5 60 3.4 WNW 11 19 6 10 1023.2 - 0.0
27/07:00am 11.2 8.3 4.4 63 3.0 W 9 19 5 10 1023.2 1023.3 0.0
27/06:30am 11.2 7.8 4.2 62 3.1 W 11 17 6 9 1022.8 - 0.0
27/06:00am 11.5 8.5 4.3 61 3.2 W 9 17 5 9 1022.5 1022.6 0.0
27/05:30am 11.5 8.5 4.3 61 3.2 WNW 9 17 5 9 1022.3 - 0.0
27/05:00am 11.7 8.3 4.2 60 3.4 W 11 19 6 10 1021.9 1022.0 0.0
27/04:30am 11.6 8.2 4.1 60 3.4 WNW 11 17 6 9 1021.9 - 0.0
27/04:00am 12.0 8.6 3.8 57 3.7 WNW 11 20 6 11 1021.9 1022.0 0.0
27/03:30am 11.9 8.8 3.7 57 3.7 W 9 17 5 9 1021.9 - 0.0
27/03:00am 11.9 8.5 3.9 58 3.6 WNW 11 17 6 9 1021.9 1022.0 0.0
27/02:30am 11.9 8.9 3.9 58 3.6 W 9 15 5 8 1022.0 - 0.0
27/02:00am 11.9 8.5 3.9 58 3.6 WNW 11 15 6 8 1022.1 1022.2 0.0
27/01:30am 11.9 8.9 4.2 59 3.5 W 9 19 5 10 1022.2 - 0.0
27/01:00am 11.7 9.1 4.4 61 3.3 WNW 7 13 4 7 1022.2 1022.3 0.0
27/12:30am 10.5 8.0 4.9 68 2.5 W 7 13 4 7 1022.4 - 0.0
27/12:00am 10.3 8.0 5.7 73 2.1 SW 7 9 4 5 1022.5 1022.6 0.0
 
Date/Time
EST
Temp
°C
App
Temp
°C
Dew
Point
Rel
Hum
%
Delta-T
°C
Wind Press
QNH
hPa
Press
MSL
hPa
Rain
since 9 am
mm
Dir
 
Spd
km/h
Gust
km/h
Spd
kts
Gust
kts
26/11:30pm 11.3 8.8 4.5 63 3.1 W 7 11 4 6 1022.8 - 0.0
26/11:00pm 11.5 9.0 4.9 64 3.0 W 7 9 4 5 1022.6 1022.7 0.0
26/10:30pm 10.9 8.5 5.4 69 2.5 W 7 11 4 6 1022.6 - 0.0
26/10:00pm 10.2 8.1 5.8 74 2.0 W 6 9 3 5 1022.6 1022.7 0.0
26/09:30pm 10.2 8.3 6.5 78 1.7 W 6 9 3 5 1022.3 - 0.0
26/09:00pm 11.4 9.7 7.7 78 1.8 W 6 7 3 4 1022.4 1022.5 0.0
26/08:30pm 11.2 9.6 6.5 73 2.2 W 4 4 2 2 1022.1 - 0.0
26/08:00pm 12.1 10.5 6.4 68 2.7 W 4 6 2 3 1022.0 1022.1 0.0
26/07:30pm 12.0 10.6 7.3 73 2.3 W 4 6 2 3 1022.1 - 0.0
26/07:00pm 12.3 11.4 7.8 74 2.2 WNW 2 6 1 3 1022.0 1022.1 0.0
26/06:30pm 12.6 12.1 7.9 73 2.3 CALM 0 0 0 0 1021.8 - 0.0
26/06:00pm 13.0 12.5 7.7 70 2.6 CALM 0 4 0 2 1021.5 1021.6 0.0
26/05:30pm 13.5 12.3 8.1 70 2.7 W 4 9 2 5 1021.1 - 0.0
26/05:00pm 14.0 12.4 8.2 68 2.9 NW 6 9 3 5 1020.7 1020.7 0.0
26/04:30pm 14.2 11.7 8.2 67 3.0 W 11 19 6 10 1021.1 - 0.0
26/04:00pm 15.7 12.5 7.0 56 4.3 W 13 28 7 15 1020.7 1020.7 0.0
26/03:30pm 16.0 13.1 8.0 59 4.0 S 13 20 7 11 1020.0 - 0.0
26/03:00pm 16.6 14.5 9.8 64 3.6 SSE 11 17 6 9 1019.8 1019.8 0.0
26/02:30pm 17.8 16.0 9.4 58 4.4 SSE 9 15 5 8 1019.5 - 0.0
26/02:00pm 18.6 15.3 4.8 40 6.6 SW 11 17 6 9 1019.6 1019.6 0.0
26/01:30pm 19.2 16.8 7.0 45 6.2 WSW 9 15 5 8 1019.7 - 0.0
26/01:00pm 19.3 16.6 7.4 46 6.0 WSW 11 22 6 12 1019.9 1019.9 0.0
26/12:30pm 18.8 17.1 8.2 50 5.5 W 7 22 4 12 1020.3 - 0.0

Other Formats:

Comma delimited format used in spreadsheet applications
http://www.bom.gov.au/fwo/IDN60801/IDN60801.94938.axf

JavaScript Object Notation format (JSON) in row-major order
http://www.bom.gov.au/fwo/IDN60801/IDN60801.94938.json